Home > Weather > Białystok > Past weeks

Flag for Poland Weather for the Past 2 Weeks in Białystok, Poland

Now
39 °F

Overcast.


Feels Like: 36 °F
Forecast: 42 / 47 °F
Wind: 5 mph from South

Location: Bialystok

Current Time: Feb 8, 2016 at 10:17:24 AM

Latest Report: Feb 8, 2016 at 9:00 AM


Visibility: 16 mi

Pressure: 29.81 "Hg

Humidity: 74%

Dew point: 32 °F

Location of BiałystokLocation

Historic Weather in Białystok — Graph

°F

Białystok Temperature Yesterday

Maximum temperature yesterday: 44 °F (at 2:00 PM)
Minimum temperature yesterday: 32 °F (at 6:00 AM)
Average temperature yesterday: 39 °F

High & Low Weather Summary for the Past Weeks

 TemperatureHumidityPressure
High47 °F (Feb 2, 11:00 AM)98% (Jan 25, 10:00 PM)30.45 "Hg (Jan 25, 10:00 PM)
Low13 °F (Jan 24, 9:00 AM)55% (Feb 3, 2:00 PM)29.47 "Hg (Jan 31, 3:00 AM)
Average36 °F82%29.96 "Hg
* Reported Jan 24 9:00 AM — Feb 8 9:00 AM, Białystok, Weather by CustomWeather, © 2016

Note: Actual official high and low records may vary slightly from our data, if they occured in-between our weather recording intervals... More about our weather records

Advertising

Białystok Weather History for the Previous 24 Hours

 ConditionsComfort  
Time TempWeatherWind HumidityBarometerVisibility
9:00 AM
Mon, Feb 8
39 °FOvercast.5 mph74%29.81 "Hg16 mi
8:00 AM37 °FPartly sunny.2 mph78%29.82 "Hg16 mi
7:00 AM36 °FScattered clouds.3 mph79%29.81 "Hg16 mi
6:00 AM36 °FPassing clouds.3 mph79%29.80 "Hg17 mi
5:00 AM35 °FClear.3 mph81%29.80 "Hg14 mi
9:00 PM
Sun, Feb 7
38 °FClear.5 mph74%29.86 "Hg25 mi
8:00 PM39 °FClear.5 mph70%29.87 "Hg25 mi
7:00 PM39 °FClear.5 mph69%29.87 "Hg25 mi
6:00 PM40 °FClear.5 mph66%29.88 "Hg31 mi
5:00 PM41 °FClear.5 mph65%29.89 "Hg25 mi
4:00 PM42 °FPassing clouds.5 mph62%29.90 "Hg28 mi
3:00 PM44 °FPassing clouds.6 mph60%29.91 "Hg22 mi
2:00 PM44 °FPassing clouds.6 mph58%29.92 "Hg17 mi
1:00 PM43 °FPassing clouds.6 mph61%29.93 "Hg15 mi
12:00 PM43 °FPassing clouds.5 mph64%29.96 "Hg15 mi
11:00 AM40 °FPassing clouds.6 mph69%29.98 "Hg11 mi
10:00 AM38 °FPassing clouds.5 mph73%30.00 "Hg9 mi
Weather by CustomWeather, © 2016

See weather overviewHow to use our weather pages